CZ-6A DEB, 54617

Orbit data source: Space-Track

CZ-6A DEB, 54617 is space debris in SSO originally from a launch on Fri, 11 Nov 2022 UTC launched from the Taiyaun Space Center, China (TSC). Debris objects in space refer to the collection of defunct objects orbiting the Earth. Examples of debris include non-operational satellites, rocket bodies, and fragments generated from explosions, collisions, or faulty payload assembly.

Loading next visibility...
Identifier
54617, 2022-151NT
Orbit
SSO
Country
Flag of CNCN / PRC
Related business
Manufacturer
SAST
Mission
Spacecraft
Bus & Motor
Unknown
Mass
Unknown
Launch date (UTC)
2022-11-11 (3 years ago)
Launch vehicle
Unknown
Launch site
Taiyaun Space Center, China (TSC)
Object type
Payload
Rocket body
Debris
Shape & HBR
Unknown shape, 0.1 m
Radar Cross Section
Small (<0.1 m²)

Expand to show TLE details & history
Last TLE update: 14 hours ago

TLE from 14 hours ago
0 CZ-6A DEB
1 54617U 22151NT  26129.98844503  .00001065  00000-0  52135-3 0  9996
2 54617  98.8184 145.8075 0026827  61.6457 298.7420 14.19824134179182
Epoch: 2026-05-09T23:43Z
TLE epoch observation values (Epoch: 2026-05-09T23:43:21.650Z)
Latitude
Longitude
-77.83069°
Altitude
819.603 km
Speed
7.448 km/s
True Right ascension
09h 43m 13s
True Declination
0° 00' 00"
Sunlit
Object was in daylight at epoch
Visualization orbit readout
Latitude
Unknown
Longitude
Unknown
Altitude
Unknown
Speed
Unknown
Apparent Right ascension
Unknown
Apparent Declination
Unknown
Sunlit
N/A
Visualization observer readout
Local Sidereal Time
21:27:43
Azimuth
Unknown
Elevation
Unknown
Doppler factor
Unknown
Orbital elements
Apogee altitude
842.43 km
Perigee altitude
803.793 km
Semi-major axis
7,201.249 km
Eccentricity
0.00268
Inclination
98.8184°
RAAN
145.8075°
Arg. of periapsis
61.6457°
True anomaly
298.47203°
Mean anomaly
298.742°
Eccentric anomaly
298.60706°
Mean motion
3.55166 °/min
Orbital period
101.36 mins
BSTAR
0.00052135
Loading maneuver chart data...
Computing Atmospheric mass density...
Loading historical data...
Loading historical data...
Loading historical data...
Loading historical data...
Loading historical data...
Loading historical data...
Loading historical data...

Documentation

Showing up to 5 results
|